******************************************************************************* JPL/HORIZONS 62P/Tsuchinshan 1 2025-Dec-12 17:54:35 Rec #:90000672 (+COV) Soln.date: 2025-Mar-14_14:47:38 # obs: 3392 (2004-2024) IAU76/J2000 helio. ecliptic osc. elements (au, days, deg., period=Julian yrs): EPOCH= 2458054.5 ! 2017-Oct-28.0000000 (TDB) RMSW= n.a. EC= .5974757354147128 QR= 1.383804771011221 TP= 2458073.6203228128 OM= 90.24451950426798 W= 30.34869260352236 IN= 9.707774690729803 A= 3.437817028091282 MA= 357.0435185623683 ADIST= 5.491829285171343 PER= 6.3742976603721 N= .15462508 ANGMOM= .025576198 DAN= 1.45856 DDN= 4.56359 L= 120.2341726 B= 4.8874524 MOID= .41109699 TP= 2017-Nov-16.1203228128 Comet physical (GM= km^3/s^2; RAD= km): GM= n.a. RAD= n.a. M1= 13.3 M2= 16. k1= 14.75 k2= 5. PHCOF= .030 Comet non-gravitational force model (AMRAT=m^2/kg;A1-A3=au/d^2;DT=days;R0=au): AMRAT= 0. DT= 0. A1= 6.29597723484E-9 A2= -4.644332453609E-10 A3= -9.519577026367E-10 Standard model: ALN= .1112620426 NK= 4.6142 NM= 2.15 NN= 5.093 R0= 2.808 COMET comments 1: soln ref.= JPL#K234/37, data arc: 2004-09-14 to 2024-06-01 2: k1=14.75, k2=5., phase coef.=0.03; ******************************************************************************* ******************************************************************************* Ephemeris / WWW_USER Fri Dec 12 17:54:36 2025 Pasadena, USA / Horizons ******************************************************************************* Target body name: 62P/Tsuchinshan 1 {source: JPL#K234/37} Center body name: Mars (499) {source: mar099} Center-site name: BODYCENTRIC ******************************************************************************* Start time : A.D. 2049-Apr-01 16:38:00.0000 UT Stop time : A.D. 2049-Apr-02 00:00:00.0000 UT Step-size : 1440 minutes ******************************************************************************* Target pole/equ : undefined Target radii : undefined Center geodetic : 0.0, 0.0, -3396.19 {W-lon(deg),Lat(deg),Alt(km)} Center cylindric: 0.0, 0.0, 0.0 {W-lon(deg),Dxy(km),Dz(km)} Center pole/equ : IAU_MARS {West-longitude positive} Center radii : 3396.19, 3396.19, 3376.2 km {Equator_a, b, pole_c} Target primary : Sun Vis. interferer : PHOBOS (R_eq= 13.000) km {source: mar099} Rel. light bend : Sun {source: DE441} Rel. lght bnd GM: 1.3271E+11 km^3/s^2 Small-body perts: Yes {source: SB441-N16} Atmos refraction: NO (AIRLESS) RA format : HMS Time format : CAL Calendar mode : Mixed Julian/Gregorian EOP file : eop.251212.p260310 EOP coverage : DATA-BASED 1962-JAN-20 TO 2025-DEC-12. PREDICTS-> 2026-MAR-09 Units conversion: 1 au= 149597870.700 km, c= 299792.458 km/s, 1 day= 86400.0 s Table cut-offs 1: Elevation (-90.0deg=NO ),Airmass n.a. , Daylight (NO ) Table cut-offs 2: Solar elongation ( 0.0,180.0=NO ),Local Hour Angle( 0.0=NO ) Table cut-offs 3: RA/DEC angular rate ( 0.0=NO ) ******************************************************************************* Initial IAU76/J2000 heliocentric ecliptic osculating elements (au, days, deg.): EPOCH= 2458054.5 ! 2017-Oct-28.0000000 (TDB) RMSW= n.a. EC= .5974757354147128 QR= 1.383804771011221 TP= 2458073.6203228128 OM= 90.24451950426798 W= 30.34869260352236 IN= 9.707774690729803 Equivalent ICRF heliocentric cartesian coordinates (au, au/d): X=-3.824024312074381E-01 Y= 1.209084231122242E+00 Z= 5.944330129479211E-01 VX=-1.682292301741107E-02 VY=-7.313443169107899E-03 VZ=-2.866027811171119E-05 Comet physical (GM= km^3/s^2; RAD= km): GM= n.a. RAD= n.a. M1= 13.3 M2= 16. k1= 14.75 k2= 5. PHCOF= .030 Comet non-gravitational force model (AMRAT=m^2/kg;A1-A3=au/d^2;DT=days;R0=au): AMRAT= 0. DT= 0. A1= 6.29597723484E-9 A2= -4.644332453609E-10 A3= -9.519577026367E-10 Standard model: ALN= .1112620426 NK= 4.6142 NM= 2.15 NN= 5.093 R0= 2.808 ******************************************************************************************************************************** Date__(UT)__HR:MN r rdot delta deldot VmagSn VmagOb RNG_3sigma RNGRT_3sig ******************************************************************************************************************************** $$SOE 2049-Apr-01 16:38 1.530442931323 -8.4662771 0.01860117347037 1.5025536 30.0548353 12.0810089 8287.0629 0.0002141 $$EOE ******************************************************************************************************************************** Column meaning: TIME Times PRIOR to 1962 are UT1, a mean-solar time closely related to the prior but now-deprecated GMT. Times AFTER 1962 are in UTC, the current civil or "wall-clock" time-scale. UTC is kept within 0.9 seconds of UT1 using integer leap-seconds for 1972 and later years. Conversion from the internal Barycentric Dynamical Time (TDB) of solar system dynamics to the non-uniform civil UT time-scale requested for output has not been determined for UTC times after the next July or January 1st. Therefore, the last known leap-second is used as a constant over future intervals. Time tags refer to the UT time-scale conversion from TDB on Earth regardless of observer location within the solar system, although clock rates may differ due to the local gravity field and no analog to "UT" may be defined for that location. Any 'b' symbol in the 1st-column denotes a B.C. date. First-column blank (" ") denotes an A.D. date. CALENDAR SYSTEM Mixed calendar mode was active such that calendar dates after AD 1582-Oct-15 (if any) are in the modern Gregorian system. Dates prior to 1582-Oct-5 (if any) are in the Julian calendar system, which is automatically extended for dates prior to its adoption on 45-Jan-1 BC. The Julian calendar is useful for matching historical dates. The Gregorian calendar more accurately corresponds to the Earth's orbital motion and seasons. A "Gregorian-only" calendar mode is available if such physical events are the primary interest. NOTE: "n.a." in output means quantity "not available" at the print-time. STATISTICAL UNCERTAINTIES Output includes formal +/- 3 standard-deviation statistical orbit uncertainty quantities. There is a 99.7% (1-D) or 98.9% (2-D) chance the actual value is within given bounds. These statistical calculations assume observational data errors are random. If there are systematic biases (such as timing, reduction or star-catalog errors), results can be optimistic. Because the epoch covariance is mapped using linearized variational partial derivatives, results can also be optimistic for times far from the solution epoch, particularly for objects having close planetary encounters. 'r rdot' = The Sun's apparent range ("r", light-time aberrated) and range-rate ("rdot") relative to the target center, as seen by the observer. A positive "rdot" means the target center was moving away from the Sun, negative means moving toward the Sun. Units: AU and KM/S 'delta deldot' = Apparent range ("delta", light-time aberrated) and range-rate ("delta-dot") of the target center relative to the observer. A positive "deldot" means the target center is moving away from the observer, negative indicates movement toward the observer. Units: AU and KM/S 'VmagSn VmagOb' = Magnitude of target centers' velocity with respect to the Sun ("VmagSn") and the observer ("VmagOb") at the time light left the target center to be observed (print time minus down-leg light-time). These are absolute values of the velocity vectors (total speeds) and do NOT indicate direction of motion. Units: KM/S 'RNG_3sigma RNGRT_3sig' = Range and range rate (radial velocity) formal 3-standard-deviation uncertainties. Units: KM, KM/S Computations by ... Solar System Dynamics Group, Horizons On-Line Ephemeris System 4800 Oak Grove Drive, Jet Propulsion Laboratory Pasadena, CA 91109 USA General site: https://ssd.jpl.nasa.gov/ Mailing list: https://ssd.jpl.nasa.gov/email_list.html System news : https://ssd.jpl.nasa.gov/horizons/news.html User Guide : https://ssd.jpl.nasa.gov/horizons/manual.html Connect : browser https://ssd.jpl.nasa.gov/horizons/app.html#/x API https://ssd-api.jpl.nasa.gov/doc/horizons.html command-line telnet ssd.jpl.nasa.gov 6775 e-mail/batch https://ssd.jpl.nasa.gov/ftp/ssd/horizons_batch.txt scripts https://ssd.jpl.nasa.gov/ftp/ssd/SCRIPTS Author : Jon.D.Giorgini@jpl.nasa.gov ******************************************************************************************************************************** !$$SOF CENTER = '@499' COMMAND = 'DES=62P;CAP' QUANTITIES = '19,20,22,39' START_TIME = '2049-Apr-01 16:38' STEP_SIZE = '1 day' STOP_TIME = '2049-Apr-02'